Location: Mohawk View
(42.7837°N, 73.7885°W)
Time: 12:55:34
(UTC+00:00)

Cosmos 1862 - Pass Details

Date: 17 June 2021
Orbit: 536 x 556 km, 82.5° (Epoch: 26 July)

Event Time Altitude Azimuth Distance (km) Brightness Sun altitude
Exits shadow 08:09:19 - 177° (S) 2,300 6.1 -10.3°
Reaches altitude 10° 08:10:28 10° 175° (S) 1,826 5.6 -10.1°
Maximum altitude 08:14:26 60° 95° (E) 638 3.8 -9.6°
Drops below altitude 10° 08:18:27 10° 15° (NNE) 1,849 7.0 -9.1°
Sets 08:20:39 0° 12° (NNE) 2,750 7.9 -8.8°
